(239234) = 2006 SG141

Discovered at Anderson Mesa on 2006-09-25 by LONEOS.

Orbit

Orbit type: Main Belt

Note: WebGL enabled browser required.

epoch2023-09-13.0
epoch JD2460200.5
perihelion date2022-05-19.03300
perihelion JD2459718.53300
argument of perihelion (°)243.49487
ascending node (°)45.25324
inclination (°)15.86265
eccentricity0.2033997
perihelion distance (AU)2.5064447
Tisserand w.r.t. Jupiter3.1
ΔV w.r.t. Earth (km/sec)11.0
semimajor axis (AU)3.1464270
mean anomaly (°)85.11276
mean daily motion (°/day)0.17659460
aphelion distance (AU)3.786
period (years)5.58
P-vector [x]0.29720525
P-vector [y]-0.74949309
P-vector [z]-0.59154809
Q-vector [x]0.93487088
Q-vector [y]0.35438440
Q-vector [z]0.02069126
absolute magnitude14.8
phase slope0.15
uncertainty0
referenceMPEC 2024-A65
observations used827
oppositions18
arc length (days)9006
first opposition used1999
last opposition used2024
residual rms (arc-secs)0.70
perturbers coarse indicatorM-v
perturbers precise indicator003Ek
first observation date used1999-05-09.0
last observation date used2024-01-04.0
computer nameMPCLINUX
JD of orbit computation2456700.197528
perihelion JD uncertainty (days)1.9942E-04
argument of perihelion uncertainty (°)3.5347E-05
ascending node uncertainty (°)1.8907E-05
inclination uncertainty (°)1.1493E-05
eccentricity uncertainty 5.5478E-08
perihelion distance uncertainty (AU)1.7626E-07
Minimum Orbit Intersection Distances (in AU)
for orbit epoch: 2460200.5, reference: E2023-Y46
Mercury2.05632
Venus1.80205
Earth1.53679
Mars1.11208
Jupiter1.56024
Saturn5.45415
Uranus15.0078
Neptune26.377

Observations

851 total observations over interval: 1999 05 09.24277 – 2024 01 04.360521
These data are available for download (format description).

Date (UT) J2000 RA J2000 Dec Magn Location Ref
1999 05 09.24277 14 17 11.85 -10 40 56.7 18.4 R 699 – Lowell Observatory-LONEOS MPS 187073
1999 05 09.25803 14 17 10.99 -10 40 58.1   699 – Lowell Observatory-LONEOS MPS 187073
1999 05 09.27332 14 17 10.14 -10 40 58.0   699 – Lowell Observatory-LONEOS MPS 187073
1999 05 13.16032 14 13 34.98 -10 47 13.7 19.3   704 – Lincoln Laboratory ETS, New Mexico MPS 213783
1999 05 13.19009 14 13 33.30 -10 47 15.9 18.9   704 – Lincoln Laboratory ETS, New Mexico MPS 213783
1999 05 13.20493 14 13 32.53 -10 47 18.1 18.9   704 – Lincoln Laboratory ETS, New Mexico MPS 213783
1999 05 13.21966 14 13 31.59 -10 47 22.2 19.4   704 – Lincoln Laboratory ETS, New Mexico MPS 213783
2000 09 20.23809 23 36 52.41 -25 25 04.5 18.0   704 – Lincoln Laboratory ETS, New Mexico MPS 213783
2000 09 20.25319 23 36 51.54 -25 25 03.7 18.1   704 – Lincoln Laboratory ETS, New Mexico MPS 213783
2000 09 20.26786 23 36 50.72 -25 25 02.4 18.2   704 – Lincoln Laboratory ETS, New Mexico MPS 213783
2001 11 19.29121 03 58 43.05 +26 22 57.1 19.1   704 – Lincoln Laboratory ETS, New Mexico MPS 213783
2001 11 19.30589 03 58 42.23 +26 22 58.1 19.6   704 – Lincoln Laboratory ETS, New Mexico MPS 213783
2001 11 19.32055 03 58 41.33 +26 22 58.0 19.3   704 – Lincoln Laboratory ETS, New Mexico MPS 213783
2001 11 19.33522 03 58 40.46 +26 22 58.7 19.6   704 – Lincoln Laboratory ETS, New Mexico MPS 213783
2001 11 19.34989 03 58 39.62 +26 22 58.8 19.7   704 – Lincoln Laboratory ETS, New Mexico MPS 213783
2001 12 05.31762 03 43 42.27 +26 24 10.0 19.5 R 644 – Palomar Mountain/NEAT MPS 223488
2001 12 05.37711 03 43 39.07 +26 24 08.6   644 – Palomar Mountain/NEAT MPS 223488
2001 12 05.44238 03 43 35.53 +26 24 06.2   644 – Palomar Mountain/NEAT MPS 223488
2004 04 08.15306 11 40 56.34 +20 30 59.9 18.7   644 – Palomar Mountain/NEAT MPS 187073
2004 04 08.17398 11 40 55.45 +20 30 59.2 18.6   644 – Palomar Mountain/NEAT MPS 187073
2004 04 08.19515 11 40 54.50 +20 30 57.4 19.0   644 – Palomar Mountain/NEAT MPS 187073
2006 09 18.33507 02 11 51.72 +02 46 59.5 20.0 V 703 – Catalina Sky Survey MPS 187073
2006 09 18.34308 02 11 51.36 +02 46 59.5 19.7 V 703 – Catalina Sky Survey MPS 187073
2006 09 18.35118 02 11 51.18 +02 46 58.8 20.1 V 703 – Catalina Sky Survey MPS 187073
2006 09 18.35924 02 11 50.89 +02 47 00.6 19.8 V 703 – Catalina Sky Survey MPS 187073
2006 09 25.33939 02 07 35.84 +02 38 46.7 19.1 R 699 – Lowell Observatory-LONEOS MPS 181376
2006 09 25.36136 02 07 34.79 +02 38 45.4   699 – Lowell Observatory-LONEOS MPS 181376
2006 09 25.38328 02 07 33.96 +02 38 43.2   699 – Lowell Observatory-LONEOS MPS 181376
2006 09 25.40523 02 07 33.04 +02 38 41.1   699 – Lowell Observatory-LONEOS MPS 181376
2006 09 26.38741 02 06 52.63 +02 37 27.5 19.4 V 703 – Catalina Sky Survey MPS 181376
2006 09 26.39619 02 06 52.30 +02 37 26.5 19.6 V 703 – Catalina Sky Survey MPS 181376
2006 09 26.40495 02 06 51.91 +02 37 24.7 19.8 V 703 – Catalina Sky Survey MPS 181376
2006 09 26.41373 02 06 51.55 +02 37 25.3 19.7 V 703 – Catalina Sky Survey MPS 181376
2006 09 29.33700 02 04 45.60 +02 33 36.8 18.7 R 699 – Lowell Observatory-LONEOS MPS 181376
2006 09 29.35892 02 04 44.60 +02 33 35.3   699 – Lowell Observatory-LONEOS MPS 181376
2006 09 29.38085 02 04 43.57 +02 33 34.4   699 – Lowell Observatory-LONEOS MPS 181376
2006 09 29.40276 02 04 42.57 +02 33 31.4   699 – Lowell Observatory-LONEOS MPS 181376
2006 09 30.30876 02 04 01.92 +02 32 20.3 19.4 V G96 – Mt. Lemmon Survey MPS 182889
2006 09 30.32568 02 04 01.12 +02 32 18.9 19.5 V G96 – Mt. Lemmon Survey MPS 182889
2006 09 30.33407 02 04 00.73 +02 32 18.4 19.4 V G96 – Mt. Lemmon Survey MPS 182889
2006 10 04.25572 02 00 56.12 +02 27 11.3 19.6 V G96 – Mt. Lemmon Survey MPS 182889
2006 10 04.26234 02 00 55.80 +02 27 10.8 19.6 V G96 – Mt. Lemmon Survey MPS 182889
2006 10 04.26896 02 00 55.44 +02 27 10.5 19.3 V G96 – Mt. Lemmon Survey MPS 182889
2006 10 04.27562 02 00 55.15 +02 27 09.7 19.5 V G96 – Mt. Lemmon Survey MPS 182889
2006 10 11.34656 01 54 55.36 +02 18 32.6 19.2 R 644 – Palomar Mountain/NEAT MPS 183074
2006 10 11.34776 01 54 55.29 +02 18 32.1 18.9 R 644 – Palomar Mountain/NEAT MPS 183074
2006 10 11.35137 01 54 55.11 +02 18 32.3 18.7 R 644 – Palomar Mountain/NEAT MPS 183074
2006 10 11.36747 01 54 54.23 +02 18 31.2 19.5 R 644 – Palomar Mountain/NEAT MPS 183074
2006 10 11.36866 01 54 54.16 +02 18 30.9 18.8 R 644 – Palomar Mountain/NEAT MPS 183074
2006 10 11.37227 01 54 53.97 +02 18 30.4 18.9 R 644 – Palomar Mountain/NEAT MPS 183074
2006 10 11.38842 01 54 53.11 +02 18 29.7 19.1 R 644 – Palomar Mountain/NEAT MPS 183074
2006 10 11.38961 01 54 53.03 +02 18 29.6 18.9 R 644 – Palomar Mountain/NEAT MPS 183074
2006 10 11.39320 01 54 52.85 +02 18 29.2 18.6 R 644 – Palomar Mountain/NEAT MPS 183074
2006 10 16.26542 01 50 32.17 +02 13 29.6 18.9 V 703 – Catalina Sky Survey MPS 183074
2006 10 16.27319 01 50 31.70 +02 13 30.1 18.8 V 703 – Catalina Sky Survey MPS 183074
2006 10 16.28098 01 50 31.30 +02 13 29.2 19.4 V 703 – Catalina Sky Survey MPS 183074
2006 10 16.28882 01 50 30.80 +02 13 29.7 19.2 V 703 – Catalina Sky Survey MPS 183074
2006 10 22.30463 01 45 04.10 +02 09 03.6 19.1 V 703 – Catalina Sky Survey MPS 184168
2006 10 22.31107 01 45 03.70 +02 09 03.0 19.5 V 703 – Catalina Sky Survey MPS 184168
2006 10 22.31751 01 45 03.38 +02 09 02.9 19.4 V 703 – Catalina Sky Survey MPS 184168
2006 10 22.32403 01 45 03.06 +02 09 03.0 19.2 V 703 – Catalina Sky Survey MPS 184168
2006 10 23.34573 01 44 07.82 +02 08 31.6 18.6 R 644 – Palomar Mountain/NEAT MPS 184168
2006 10 23.36676 01 44 06.68 +02 08 30.9 18.6 R 644 – Palomar Mountain/NEAT MPS 184168
2006 10 23.38785 01 44 05.51 +02 08 30.4 19.0 R 644 – Palomar Mountain/NEAT MPS 184168
2006 11 07.27224 01 31 34.47 +02 11 13.2 20.5 R 644 – Palomar Mountain/NEAT MPS 186525
2006 11 07.29267 01 31 33.49 +02 11 14.2 19.4 R 644 – Palomar Mountain/NEAT MPS 186525
2006 11 07.31425 01 31 32.43 +02 11 14.9 19.7 R 644 – Palomar Mountain/NEAT MPS 186525
2006 11 14.18818 01 26 43.17 +02 19 51.5 19.5 C 704 – Lincoln Laboratory ETS, New Mexico MPS 293221
2006 11 14.19992 01 26 42.77 +02 19 52.1 19.3 C 704 – Lincoln Laboratory ETS, New Mexico MPS 293221
2006 11 14.21168 01 26 42.26 +02 19 54.0 19.7 C 704 – Lincoln Laboratory ETS, New Mexico MPS 293221
2006 11 14.22341 01 26 41.84 +02 19 54.9 19.7 C 704 – Lincoln Laboratory ETS, New Mexico MPS 293221
2006 11 16.23558 01 25 26.50 +02 23 22.9 19.4 V 703 – Catalina Sky Survey MPS 187073
2006 11 16.24751 01 25 25.96 +02 23 25.1 19.4 V 703 – Catalina Sky Survey MPS 187073
2006 11 16.25947 01 25 25.53 +02 23 26.9 20.0 V 703 – Catalina Sky Survey MPS 187073
2006 11 16.27143 01 25 25.14 +02 23 28.6 19.9 V 703 – Catalina Sky Survey MPS 187073
2006 12 21.13208 01 17 04.48 +04 30 13.2 19.9 V G96 – Mt. Lemmon Survey MPS 192304
2006 12 21.13830 01 17 04.56 +04 30 15.3 20.4 V G96 – Mt. Lemmon Survey MPS 192304
2006 12 21.14478 01 17 04.59 +04 30 17.3 20.0 V G96 – Mt. Lemmon Survey MPS 192304
2006 12 21.15104 01 17 04.63 +04 30 19.3 20.5 V G96 – Mt. Lemmon Survey MPS 192304
2009 03 02.20634 09 29 00.34 +37 07 46.4 20.5 V 703 – Catalina Sky Survey MPS 278697
2009 03 02.21480 09 28 59.95 +37 07 46.1 20.8 V 703 – Catalina Sky Survey MPS 278697
2009 03 02.22339 09 28 59.52 +37 07 46.5 21.1 V 703 – Catalina Sky Survey MPS 278697
2009 03 02.23232 09 28 58.94 +37 07 47.1 20.1 V 703 – Catalina Sky Survey MPS 278697
2010 01 20.915575 14 05 04.76 -02 07 04.4   C51 – WISE MPS 334725
2010 01 21.047881 14 05 10.267 -02 07 31.91   C51 – WISE MPS 903666
2010 01 21.180312 14 05 15.86 -02 07 59.3   C51 – WISE MPS 334725
2010 01 21.246400 14 05 18.61 -02 08 13.6   C51 – WISE MPS 334725
2010 01 21.312617 14 05 21.38 -02 08 26.9   C51 – WISE MPS 334725
2010 01 21.378706 14 05 24.14 -02 08 40.0   C51 – WISE MPS 334725
2010 01 21.378833 14 05 24.19 -02 08 40.4   C51 – WISE MPS 334725
2010 01 21.444921 14 05 26.91 -02 08 54.0   C51 – WISE MPS 334725
2010 01 21.511063 14 05 29.68 -02 09 08.0   C51 – WISE MPS 334725
2010 01 21.643494 14 05 35.16 -02 09 35.2   C51 – WISE MPS 334725
2010 01 21.77580 14 05 40.63 -02 10 02.4   C51 – WISE MPS 334725
2010 01 21.908103 14 05 46.11 -02 10 28.8   C51 – WISE MPS 334725
2010 04 05.36300 14 03 03.92 -03 01 43.5 19.1 V 703 – Catalina Sky Survey MPS 320678
